Temp
69 58 52 58 64 64 62 59 59 64 69 64 63 65 69 75 77 77 82 82 83 86 92 95 95 95 95 87 80 78 80 80 81 86 86 89 89 90 93 93 91 89 90 89
63 56 64 65 65 61 59 55 56 63 67 64 64 63 68 72 73 77 79 81 83 85 88 91 94 94 92 84 78 79 81 80 82 85 88 91 91 92 93 92 89 89 88 87
55 62 68 63 60 58 58 54 55 56 62 66 60 57 64 71 74 75 78 81 83 84 86 89 91 92 89 80 79 79 81 81 83 86 89 89 91 90 90 86 87 86 86 84
59 67 63 61 58 59 51 61 59 55 52 48 60 44 59 66 68 72 75 77 79 83 86 89 90 91 86 80 80 80 82 79 84 86 86 84 86 84 86 85 78 80 81 80
54 57 55 55 58 61 52 62 56 55 53 49 53 45 56 66 64 70 73 76 79 83 85 88 92 91 84 79 79 81 78 82 83 85 86 86 82 72 72 76 76 76 75 76
58 67 61 61 63 63 61 55 56 55 48 36 49 47 53 58 65 71 76 78 80 83 86 88 93 92 84 80 80 79 80 82 83 86 84 79 70 70 72 75 74 71 75 75
57 61 67 67 58 61 56 45 35 33 33 38 55 48 55 66 71 74 75 79 82 84 86 88 91 86 84 77 81 82 80 79 84 82 80 75 75 75 75 74 69 72 74 73
44 44 56 60 54 50 47 43 34 28 34 43 56 48 56 69 74 77 79 81 84 84 88 89 91 83 81 81 84 80 80 80 81 80 79 78 77 80 75 72 76 77 71 71
38 44 58 58 59 54 40 35 47 35 43 41 50 52 65 71 71 74 75 77 81 83 86 89 92 75 77 81 79 81 82 81 79 80 79 76 79 77 74 75 76 72 70 71
39 32 52 57 58 57 43 48 34 35 29 30 42 47 50 61 66 70 72 74 79 84 86 90 91 68 73 77 79 82 82 79 81 79 78 77 77 76 74 73 70 73 73 73
40 33 43 52 47 46 40 36 39 45 42 35 37 47 57 57 62 69 72 75 80 85 87 89 79 64 71 74 75 76 78 80 77 73 72 73 74 73 72 72 72 73 73 73
44 35 34 44 57 60 52 47 45 37 39 46 44 44 58 62 64 65 72 77 82 87 89 87 70 65 68 70 74 74 75 71 70 72 72 71 72 71 71 71 72 73 73 73
39 35 33 43 50 42 41 46 49 47 46 38 34 40 59 62 62 66 69 77 79 86 86 75 66 64 69 71 71 68 67 68 71 71 71 71 71 70 70 70 72 73 72 73
44 36 34 36 44 45 37 41 49 49 38 41 42 45 52 59 60 64 67 77 79 75 64 64 64 64 65 66 64 64 65 67 69 71 71 69 69 70 70 71 71 72 73 72
40 34 41 44 43 43 45 46 50 48 48 40 45 47 55 58 57 61 67 76 65 62 61 60 61 61 61 62 63 64 64 67 70 72 70 69 70 71 71 71 71 71 70 71
43 35 41 43 50 50 47 49 46 48 47 44 43 44 59 61 57 60 62 67 60 59 58 59 60 60 59 61 61 62 64 66 71 71 69 70 70 70 69 68 68 68 68 68
38 36 35 38 48 45 35 35 35 37 38 34 34 47 52 46 58 64 65 64 59 58 57 59 59 59 59 61 62 62 64 67 69 68 68 68 68 66 67 68 68 66 65 66
38 38 40 39 46 32 37 37 35 33 35 36 38 42 49 51 59 61 67 61 57 57 58 58 59 59 60 61 62 64 65 66 68 67 66 66 66 67 68 66 64 64 64 64
48 40 36 35 39 44 39 34 32 30 32 39 36 42 51 51 52 51 59 60 58 59 59 60 62 62 61 62 63 63 62 64 65 64 66 67 68 67 66 64 63 64 63 63
53 51 40 40 35 32 30 35 39 37 33 37 36 41 51 59 43 45 53 56 57 60 62 62 62 63 64 64 65 64 64 64 64 66 68 70 70 66 64 63 63 64 64 64
39 40 38 41 37 35 34 36 45 34 31 36 39 45 49 45 47 50 54 55 58 60 61 64 65 66 67 69 70 67 67 66 69 70 71 68 65 64 63 63 64 64 63 62
33 31 35 39 37 31 38 39 31 34 36 40 43 46 45 46 48 51 53 54 56 58 61 64 65 67 69 70 70 67 66 69 69 66 63 61 63 63 62 61 62 62 62 61
35 37 33 34 33 38 39 33 36 41 41 42 42 45 48 46 48 51 52 54 56 59 61 64 64 63 65 66 67 64 67 68 64 62 61 61 61 62 63 62 62 62 63 64
38 43 35 34 36 36 37 37 37 42 42 43 44 44 47 46 48 50 52 53 55 59 61 64 64 62 62 65 66 66 67 68 65 61 60 61 61 61 62 64 64 65 64 64
39 40 35 36 38 37 41 37 37 41 43 43 42 42 44 45 46 50 51 52 55 57 59 61 60 59 61 64 64 65 66 65 63 62 60 60 61 60 55 52 57 56 50 53
38 34 34 33 34 32 33 35 39 40 41 42 41 39 41 42 41 46 50 52 55 57 58 58 59 59 61 62 62 63 64 62 61 60 62 61 61 61 59 55 52 39 41 40
MSLP
1006.56 1006.84 1006.21 1005.75 1004.50 1004.04 1003.56 1002.91 1001.80 1001.27 1000.88 1001.26 1000.61 999.84 999.52 998.76 998.38 997.27 996.43 996.56 996.75 996.47 996.60 996.85 997.56 998.42 998.82 1000.65 1002.60 1003.83 1004.71 1005.36 1006.04 1006.50 1006.75 1006.69 1007.24 1007.88 1008.17 1008.69 1009.29 1010.30 1010.62 1011.15
1005.60 1004.51 1004.45 1004.65 1004.43 1004.05 1003.74 1003.16 1002.11 1001.48 1001.07 1001.10 1000.10 999.41 999.37 999.01 998.37 997.57 996.73 996.24 996.05 996.23 996.37 996.28 996.70 997.49 998.22 1000.37 1002.21 1003.31 1004.13 1004.87 1005.68 1006.32 1006.42 1006.36 1006.75 1007.46 1008.03 1008.77 1009.70 1010.24 1010.67 1011.31
1004.84 1004.25 1003.84 1003.97 1003.96 1003.63 1003.36 1003.11 1002.57 1001.97 1001.33 1000.77 1000.97 999.59 998.36 998.03 997.99 997.69 996.98 996.50 996.17 996.05 995.84 995.81 996.09 996.60 998.01 1000.19 1001.53 1002.67 1003.52 1004.40 1005.30 1005.85 1005.95 1006.29 1006.78 1007.42 1008.15 1009.34 1010.05 1010.51 1010.88 1011.46
1004.65 1003.80 1003.45 1003.24 1002.83 1003.15 1002.53 1003.16 1002.92 1002.74 1002.22 1000.83 1000.45 998.68 997.67 996.54 996.27 996.31 996.33 996.23 996.21 995.67 995.29 995.18 995.55 995.99 997.73 999.75 1001.10 1001.99 1002.98 1003.86 1004.82 1005.29 1005.37 1006.04 1006.47 1007.30 1008.36 1009.39 1010.91 1011.41 1011.67 1012.06
1004.42 1004.18 1003.62 1003.09 1002.81 1002.96 1003.17 1003.04 1003.50 1003.27 1002.70 1002.11 1000.00 999.16 995.65 995.64 994.30 994.10 994.40 994.90 995.07 994.99 994.78 994.58 994.50 995.11 997.68 999.33 1000.70 1001.38 1002.66 1003.23 1004.07 1004.97 1005.45 1006.38 1006.76 1008.44 1009.83 1010.76 1011.39 1011.80 1012.32 1012.83
1004.48 1003.71 1002.99 1002.29 1002.38 1002.64 1003.63 1004.33 1003.88 1003.49 1003.22 1001.55 999.08 998.63 995.18 994.35 993.10 992.48 992.53 992.90 993.51 993.96 994.05 994.09 993.74 994.62 997.18 998.74 1000.25 1001.36 1002.56 1002.57 1003.87 1004.15 1005.54 1006.81 1007.78 1009.05 1009.59 1010.80 1011.69 1012.28 1012.72 1013.48
1003.50 1002.13 1000.90 1001.15 1001.78 1002.50 1003.43 1004.64 1004.21 1003.70 1002.77 998.82 997.75 996.90 994.13 992.89 992.22 991.41 991.17 991.38 991.86 992.71 992.92 993.12 993.25 993.89 995.71 997.41 998.85 1000.24 1001.29 1002.43 1003.37 1004.17 1006.15 1007.66 1007.96 1008.52 1009.58 1010.89 1011.73 1012.51 1013.12 1013.77
1004.54 1002.39 1001.91 1002.39 1003.11 1003.25 1004.33 1005.41 1004.76 1002.94 1000.83 998.38 996.26 994.60 992.73 992.82 992.13 991.08 990.98 990.46 990.60 991.32 991.79 991.35 991.95 993.15 994.61 996.47 997.65 998.45 999.96 1001.49 1002.75 1004.52 1006.17 1007.06 1007.83 1008.55 1009.87 1011.01 1011.59 1012.31 1013.29 1014.29
1006.65 1004.37 1003.63 1003.43 1003.67 1004.27 1004.96 1005.19 1004.68 1004.17 1002.08 999.73 996.42 994.87 992.81 991.78 991.26 991.17 991.18 990.39 989.73 990.33 989.98 990.61 991.41 993.75 995.55 996.72 997.87 998.67 999.48 1000.72 1002.82 1004.26 1005.40 1006.70 1007.41 1008.66 1010.01 1010.94 1011.61 1012.94 1013.91 1014.76
1008.96 1006.95 1004.82 1003.12 1003.04 1003.11 1004.42 1005.02 1005.45 1004.26 1001.55 998.97 996.83 994.82 993.20 991.77 991.35 991.19 990.83 990.84 989.49 988.57 989.67 989.73 991.79 994.83 995.78 996.18 997.84 999.27 1000.21 1000.82 1002.53 1004.20 1005.61 1006.31 1007.63 1009.08 1010.29 1011.29 1012.44 1013.14 1013.94 1014.76
1010.35 1009.32 1005.24 1004.02 1002.74 1002.16 1003.99 1004.55 1004.28 1002.92 1001.15 998.85 996.39 994.28 993.97 993.33 992.29 990.72 990.73 990.40 988.57 988.16 989.05 989.11 992.56 994.60 995.80 996.56 998.17 999.82 1000.22 1000.68 1003.05 1005.01 1006.03 1006.93 1008.33 1009.76 1010.89 1011.82 1012.72 1013.52 1014.37 1015.02
1010.41 1009.27 1006.28 1003.29 1001.30 1000.84 1001.63 1002.32 1002.54 1001.75 999.83 998.15 996.86 994.80 995.53 994.74 993.83 992.35 990.54 989.66 988.41 988.37 988.80 990.34 993.71 995.10 993.87 994.34 998.56 1000.35 1000.51 1001.53 1003.92 1005.51 1006.60 1007.71 1008.79 1010.31 1011.28 1012.39 1013.23 1014.09 1014.68 1015.25
1010.71 1009.42 1006.44 1002.16 1000.74 1002.13 1002.21 1001.93 1001.47 1000.73 1000.33 998.73 997.82 995.75 995.37 995.13 994.40 993.34 991.77 990.14 989.57 988.76 989.83 992.60 994.77 997.94 998.37 998.15 999.49 1000.67 1001.02 1002.90 1004.90 1006.26 1007.31 1008.16 1009.47 1010.85 1011.87 1012.75 1013.55 1014.35 1015.02 1015.64
1009.92 1009.00 1007.11 1004.17 1001.71 1001.95 1001.95 1001.77 1000.54 999.81 999.62 998.47 997.26 996.12 995.83 995.02 994.37 993.75 992.48 990.59 990.09 990.52 993.39 994.53 996.75 994.75 997.35 999.38 1000.26 1000.79 1002.34 1004.53 1005.59 1006.81 1007.82 1008.84 1010.23 1011.34 1012.41 1013.25 1014.09 1014.86 1015.65 1016.18
1009.85 1008.14 1006.14 1003.85 1002.53 1001.72 1001.11 1000.74 999.67 999.12 998.91 998.64 997.40 996.14 995.15 995.01 994.82 994.19 992.65 990.80 992.03 992.95 995.08 996.36 997.68 998.99 999.73 1000.30 1000.94 1002.21 1004.02 1005.17 1006.15 1007.05 1008.26 1009.55 1010.81 1011.89 1013.03 1013.90 1014.74 1015.67 1016.34 1016.86
1009.11 1007.53 1005.65 1002.50 1000.52 999.96 1000.04 1000.47 1000.87 1000.27 1000.04 999.47 998.98 996.59 995.94 995.13 995.27 994.39 992.50 992.31 993.61 994.09 995.97 997.60 999.39 999.99 1000.29 1000.89 1001.91 1003.25 1004.95 1005.70 1006.44 1007.75 1009.07 1010.54 1011.60 1012.73 1013.85 1014.79 1015.65 1016.53 1017.19 1017.55
1008.71 1007.63 1005.65 1001.83 1000.10 1000.16 1001.38 1003.05 1003.36 1002.76 1002.13 1001.91 1000.20 997.48 996.81 996.31 994.64 992.82 992.00 993.24 994.21 995.51 996.63 998.52 999.73 1000.24 1001.21 1002.37 1002.43 1003.67 1005.09 1006.00 1007.28 1008.96 1010.33 1011.57 1012.59 1013.61 1014.51 1015.44 1016.18 1017.17 1017.81 1018.21
1008.11 1006.91 1005.12 1002.23 1000.28 1000.36 1002.54 1004.16 1004.73 1003.99 1002.93 1002.32 1000.94 999.25 996.50 996.09 993.82 993.13 993.70 994.26 995.65 997.04 998.18 999.63 999.79 1000.81 1001.77 1002.10 1003.50 1004.60 1005.67 1007.02 1008.61 1009.99 1011.19 1012.37 1013.30 1014.14 1015.11 1016.14 1017.08 1017.83 1018.39 1018.87
1007.26 1006.50 1004.84 1002.79 1001.43 1001.35 1003.20 1005.06 1005.31 1004.96 1003.45 1002.67 1000.67 998.62 996.78 995.48 994.46 996.04 996.31 996.11 997.20 998.47 999.67 1000.31 1001.45 1001.97 1002.76 1003.87 1005.09 1006.07 1007.45 1008.57 1009.74 1011.05 1011.88 1012.95 1013.89 1014.84 1015.93 1016.95 1017.78 1018.35 1018.84 1019.38
1006.10 1005.10 1004.69 1003.58 1002.93 1003.35 1006.43 1005.87 1004.70 1004.79 1003.56 1002.41 1001.26 998.76 995.20 994.63 996.82 998.39 997.78 998.43 999.23 1000.02 1000.85 1001.45 1002.10 1002.61 1003.59 1005.01 1006.01 1006.99 1008.49 1009.67 1010.61 1011.72 1012.49 1013.48 1014.43 1015.62 1016.69 1017.71 1018.23 1018.76 1019.10 1019.57
1006.84 1005.92 1005.16 1004.52 1004.32 1005.40 1007.13 1006.87 1004.45 1004.77 1005.96 1003.73 1002.54 998.91 997.40 997.72 999.24 999.70 999.67 1000.66 1001.05 1001.44 1001.69 1001.89 1002.47 1003.37 1004.45 1005.59 1006.58 1007.85 1009.07 1010.11 1011.21 1012.15 1013.17 1014.48 1015.76 1016.68 1017.57 1018.22 1018.63 1018.97 1019.58 1020.33
1009.02 1008.38 1006.90 1006.47 1006.07 1007.21 1008.35 1007.86 1008.46 1007.73 1006.59 1004.94 1003.11 1001.64 1000.53 1000.97 1001.11 1001.02 1001.33 1002.05 1002.62 1002.84 1002.98 1003.18 1003.64 1004.81 1005.86 1006.82 1007.77 1008.89 1010.12 1011.13 1012.27 1013.82 1015.04 1016.16 1016.92 1017.61 1018.43 1018.99 1019.47 1019.96 1020.39 1020.54
1009.96 1010.79 1010.45 1010.21 1009.93 1010.50 1010.58 1011.04 1010.05 1007.99 1006.63 1005.59 1004.37 1004.11 1002.69 1002.71 1002.84 1002.72 1002.89 1003.25 1003.81 1003.99 1004.30 1004.93 1005.54 1006.54 1007.74 1008.68 1009.57 1010.41 1011.49 1012.47 1013.97 1015.17 1016.03 1016.81 1017.69 1018.30 1018.93 1019.43 1019.88 1020.38 1020.47 1020.52
1011.23 1011.48 1011.30 1011.25 1011.09 1011.53 1011.39 1011.07 1010.79 1009.25 1007.56 1007.02 1006.32 1005.51 1004.77 1004.51 1004.67 1004.51 1004.62 1004.79 1005.09 1005.65 1006.02 1006.80 1007.53 1008.36 1009.43 1010.61 1011.40 1012.08 1012.78 1013.66 1014.65 1015.84 1016.79 1017.59 1018.20 1018.85 1019.52 1019.93 1020.22 1020.56 1021.12 1021.29
1012.55 1012.43 1012.39 1011.80 1011.89 1011.67 1011.44 1011.97 1011.47 1009.98 1009.42 1008.72 1008.25 1007.88 1007.27 1006.61 1006.61 1006.27 1006.33 1006.47 1006.88 1007.30 1008.00 1008.70 1009.44 1010.16 1010.97 1011.83 1012.55 1013.27 1014.02 1014.71 1015.43 1016.43 1017.45 1018.09 1018.75 1019.53 1020.81 1021.99 1022.27 1023.46 1024.43 1023.37
1013.74 1013.99 1013.79 1013.27 1013.68 1013.93 1013.08 1012.68 1011.81 1010.85 1010.40 1010.15 1009.55 1009.69 1009.56 1008.82 1008.70 1008.37 1008.24 1008.42 1008.55 1009.07 1009.88 1010.52 1011.13 1011.59 1012.28 1013.07 1013.87 1014.52 1015.22 1015.73 1016.36 1017.01 1017.75 1018.39 1019.14 1020.05 1021.07 1022.51 1024.24 1025.61 1025.50 1025.51
Wind_Speed
17 15 15 22 19 19 21 24 25 22 20 12 19 21 21 17 21 25 25 20 20 21 19 21 21 20 19 23 22 18 18 15 12 13 11 10 11 9 9 8 10 10 8 8
17 20 24 22 22 22 23 25 26 25 21 20 24 23 20 19 22 22 21 17 18 18 18 19 20 22 21 22 20 18 20 17 13 11 10 10 10 10 9 8 8 8 8 8
20 22 21 18 21 22 21 24 24 25 24 20 21 26 26 21 26 26 26 23 20 21 21 19 20 22 22 20 21 20 20 18 15 15 10 8 9 8 8 9 8 7 9 8
19 21 17 20 24 22 25 21 25 17 20 17 19 21 26 26 27 28 27 26 25 25 21 20 22 23 23 19 20 20 19 19 14 15 13 14 11 12 8 9 8 9 10 10
24 25 25 21 21 20 17 14 16 19 21 19 28 16 23 26 29 28 29 29 28 26 22 23 24 24 21 21 20 20 20 21 17 13 13 12 9 10 8 10 13 9 7 8
27 26 24 26 23 23 13 15 17 18 14 17 25 22 22 20 24 20 23 30 29 29 27 25 22 25 23 22 23 20 23 20 19 17 16 14 18 15 13 12 9 6 6 6
17 23 23 23 20 19 16 10 6 8 12 21 15 18 23 17 28 22 19 24 29 29 27 26 26 25 25 27 29 25 23 22 20 18 18 18 18 17 15 12 9 10 8 8
12 12 5 10 14 11 11 12 7 9 15 18 21 23 22 24 24 17 17 22 25 30 27 29 30 28 30 30 29 27 26 24 20 19 20 17 17 12 10 12 11 9 10 9
8 9 5 15 18 13 2 11 17 16 20 18 17 5 23 17 14 20 18 19 22 30 29 29 32 20 28 29 25 26 27 24 22 21 17 16 13 16 13 15 11 10 11 9
3 14 16 19 9 17 13 2 4 4 7 15 10 20 14 19 18 17 16 20 24 28 29 29 22 21 30 27 24 25 24 23 22 21 18 13 17 15 14 13 13 12 11 11
6 7 13 15 11 16 6 4 10 12 11 11 16 12 12 16 17 13 17 24 26 26 29 26 12 19 15 24 23 23 22 24 21 17 18 18 18 17 14 13 12 13 12 11
6 5 9 22 23 21 16 19 18 11 13 14 16 19 11 16 18 19 15 23 21 26 27 16 22 20 7 28 21 21 19 19 19 19 20 19 17 15 14 13 14 13 12 11
2 5 8 11 3 11 3 11 21 17 16 17 13 7 6 13 21 19 22 26 25 24 24 24 28 23 23 18 19 19 20 21 20 20 19 19 17 16 15 14 15 13 12 11
7 6 12 14 20 12 5 13 22 17 12 15 16 19 14 21 16 18 23 27 29 17 20 19 17 12 21 19 20 21 20 20 21 19 19 19 17 17 15 15 14 13 11 10
3 8 15 19 23 24 25 19 19 14 17 16 15 18 18 12 13 22 26 25 22 17 21 20 16 16 18 19 20 22 21 20 20 22 21 19 18 18 17 16 15 13 11 10
4 7 15 24 19 16 11 4 14 13 14 13 15 26 21 13 15 25 21 26 22 18 18 19 20 20 19 21 21 21 21 19 20 22 22 20 19 18 17 16 15 13 12 11
4 5 6 9 10 10 3 6 12 13 10 3 9 18 22 11 23 22 26 28 24 20 17 18 19 19 19 20 22 22 21 20 23 22 21 20 19 18 16 16 15 13 12 11
7 11 7 11 17 3 8 10 13 10 15 8 15 18 14 19 6 17 22 25 22 20 20 17 18 20 19 22 22 21 20 20 21 21 19 18 16 18 17 15 15 13 11 11
9 6 6 7 14 2 10 12 9 5 7 9 17 23 5 14 28 17 16 20 20 18 17 18 19 21 23 23 22 22 21 20 20 18 17 16 16 18 16 16 14 12 11 10
16 10 7 8 9 5 10 23 23 1 4 24 26 22 15 25 16 8 17 19 18 20 19 21 22 23 23 22 21 22 20 19 18 17 17 18 18 17 17 15 13 12 11 10
11 9 9 10 5 5 17 25 27 5 10 24 18 14 19 14 9 15 22 19 18 18 22 22 22 21 21 20 20 21 19 19 18 18 19 19 17 16 15 14 10 10 11 10
5 8 7 8 6 6 24 14 10 13 16 15 14 9 23 17 15 20 22 20 20 20 21 22 21 20 19 19 19 20 19 18 19 20 19 17 16 13 11 13 11 10 9 7
2 5 7 6 5 10 15 8 14 13 11 12 13 8 18 16 16 20 20 21 19 19 19 19 21 21 18 18 18 20 18 20 20 18 17 16 15 13 12 12 10 8 5 5
1 4 5 10 4 16 9 13 17 11 11 12 13 11 13 17 15 18 18 18 18 17 19 19 20 21 20 19 20 19 19 20 20 19 17 16 14 14 11 8 7 7 7 5
4 11 10 8 6 14 4 14 16 10 9 13 15 13 12 18 14 17 17 19 18 19 18 17 18 18 20 19 19 18 18 18 17 17 16 15 13 14 13 14 10 11 12 12
4 5 5 4 9 4 11 12 13 9 10 12 16 16 15 17 18 15 16 16 18 19 18 17 18 18 20 19 19 17 16 14 15 14 13 12 12 11 12 12 13 17 16 18
Wind_Direction
255 231 250 261 267 262 273 277 279 281 287 257 261 274 278 271 242 269 225 213 234 232 232 221 211 209 195 152 158 165 181 181 167 168 176 170 159 183 173 175 137 153 184 176
268 256 243 252 262 271 269 267 267 273 261 265 264 258 254 256 267 256 253 238 227 228 232 226 211 208 175 161 159 167 182 168 166 162 181 176 167 169 161 146 146 166 154 148
273 268 273 258 248 260 267 263 265 273 272 262 277 278 258 245 247 242 251 247 242 236 227 217 208 198 158 163 165 172 179 157 168 165 189 154 152 139 152 126 157 141 144 138
286 287 280 274 264 259 255 248 261 298 286 271 260 262 259 249 233 232 231 230 232 238 230 221 204 189 162 170 172 169 162 151 167 179 157 162 158 165 119 143 115 132 145 143
275 282 284 269 264 270 294 286 277 257 257 271 259 260 256 249 234 221 221 220 224 224 226 226 208 175 167 174 171 166 145 154 164 168 158 164 139 109 122 143 150 145 126 116
270 265 255 253 260 260 251 249 264 274 267 251 247 245 257 247 257 229 226 211 214 216 220 219 219 167 173 182 164 155 159 161 158 159 158 130 133 142 140 155 143 122 126 119
296 279 266 228 247 248 238 257 232 233 219 244 247 228 242 243 244 247 229 222 206 210 215 207 211 172 177 181 165 161 160 147 159 135 143 152 148 144 146 152 113 141 140 119
286 298 39 20 266 295 272 217 246 265 244 251 241 233 231 244 254 237 252 226 211 206 209 206 206 181 178 168 161 154 149 153 146 144 152 146 142 147 122 124 146 138 97 113
313 265 326 303 285 248 3 226 254 260 263 272 269 225 287 263 263 223 238 264 224 198 210 206 208 160 174 162 150 149 151 147 141 150 141 144 148 127 131 139 127 104 119 132
310 286 279 288 291 258 198 221 230 199 246 254 252 259 255 241 219 233 225 233 245 202 204 208 200 149 200 146 140 148 144 139 144 134 142 136 124 121 124 118 122 134 125 120
277 225 283 288 240 237 175 215 233 268 251 271 277 261 37 340 327 231 216 227 230 195 202 207 136 130 180 138 139 137 144 136 130 122 120 116 122 122 123 127 124 125 119 120
249 270 274 276 273 270 223 231 227 245 256 259 261 261 50 292 314 307 222 221 227 196 194 170 109 114 230 129 128 137 132 108 119 118 119 121 121 117 122 118 120 122 116 109
201 239 286 293 193 27 281 246 243 239 260 258 260 270 354 306 290 294 298 208 226 199 189 125 119 151 149 136 133 113 111 114 117 117 118 117 116 119 116 119 117 112 109 109
238 232 245 276 299 312 236 247 255 230 243 257 257 273 272 269 270 281 285 209 217 132 120 123 117 113 113 118 114 107 109 116 119 118 113 111 116 116 114 114 114 111 109 105
243 265 269 264 270 269 269 243 254 233 242 244 261 266 261 274 279 267 263 210 119 130 125 118 104 114 113 112 109 110 112 116 121 117 115 113 116 115 116 113 108 104 103 99
229 275 298 286 277 261 224 298 353 314 302 290 267 267 273 283 257 261 254 142 142 118 117 118 126 121 115 112 111 111 115 115 114 115 116 117 118 114 113 111 108 106 102 97
271 293 292 275 327 289 123 29 341 294 268 286 244 272 310 300 261 217 149 134 121 118 115 123 121 118 114 116 114 111 114 116 115 116 117 117 117 116 117 115 109 105 102 99
304 310 266 286 312 338 136 54 340 295 284 255 281 282 282 240 257 122 115 120 115 119 122 121 114 111 110 105 105 110 110 110 116 117 117 119 120 116 113 107 106 107 104 101
285 280 285 296 321 133 141 357 318 315 285 334 342 337 139 134 83 73 102 100 106 113 117 112 115 115 110 111 112 108 107 109 112 117 119 120 120 117 116 112 112 111 110 103
328 284 256 308 312 334 358 337 321 131 237 358 337 322 190 116 86 80 84 88 98 104 114 118 115 111 113 115 115 114 117 120 122 128 122 125 115 114 113 115 112 112 109 103
335 346 320 317 304 96 358 338 314 334 339 323 324 333 70 76 84 113 95 91 99 104 111 108 106 108 111 117 117 115 118 118 117 118 116 105 107 110 108 108 101 94 86 95
316 320 339 327 315 352 3 341 13 303 302 318 351 37 87 85 98 105 102 101 100 103 102 102 104 103 104 109 110 110 110 112 105 104 105 109 116 109 108 102 102 104 113 112
326 3 315 321 335 350 331 322 310 334 338 16 7 29 95 96 94 101 103 104 103 103 99 96 99 99 96 98 102 107 113 110 108 115 117 113 112 113 113 110 111 106 100 101
105 7 276 326 59 344 326 341 344 345 16 43 34 39 87 91 97 96 97 101 102 103 104 105 104 104 107 113 116 116 118 119 119 111 110 115 114 109 114 116 115 79 72 103
2 308 327 273 351 326 350 344 332 344 53 73 53 45 64 80 76 97 99 97 97 96 97 97 99 101 107 112 110 113 117 115 116 113 113 116 116 94 78 57 47 80 48 33
2 336 328 321 332 293 295 324 322 19 83 82 81 64 56 69 69 71 91 93 100 99 101 103 105 108 111 112 114 114 113 114 118 123 123 119 120 122 108 99 88 57 63 59